Location: Quedlinburg
(51.7921°N, 11.1414°E)
Time: 02:03:47
(UTC+02:00)

METEOR M2 - Pass Details

Date: 17 March 2026
Orbit: 817 x 824 km, 98.5° (Epoch: 13 April)

Event Time Altitude Azimuth Distance (km) Brightness Sun altitude
Rises 03:16:52 0° 26° (NNE) 3,374 ? -28.0°
Reaches altitude 10° 03:20:04 10° 46° (NE) 2,435 ? -27.6°
Maximum altitude 03:23:36 18° 87° (E) 1,953 ? -27.2°
Drops below altitude 10° 03:27:06 10° 128° (SE) 2,422 ? -26.7°
Sets 03:30:16 0° 148° (SSE) 3,349 ? -26.4°
